STARLINK-34470 (64703 NORAD) Tracking and Keplerian Element Data

This shows tracking and keplerian element data for the satellite.

Feedback or suggestion? Click here.




ElementValue
Catalog64703
NameSTARLINK-34470
Epoch Orbit2752
Epoch Day353.89741674
Epoch Year2025
RAAN155.0225
Inclination70.001
Eccentricity0.0003162
Argument of Perigee262.4082
Mean Anonmoly97.6717
Mean Motion14.95963242
Decay Rate0.00025973
L11 64703U 25142H 25353.89741674 .00025973 00000+0 23128-2 0 9991
L22 64703 70.0010 155.0225 0003162 262.4082 97.6717 14.95963242 27524



Live tracking and technical data element details for STARLINK-34470 (NORAD 64703). STARLINK-34470 can be tracked NOW for your location showing map with azimuth and elevation plus other details from your city location.







IsCatalogInMostPopularTable: catalog: 64703, numindb: 5
Update: records affected: 1



GetName: 64703 STARLINK-34470

Hit Count: updated at: Sat, 11 Apr 2026 20:10:43 GMT